Miscellaneous Local Product
Issued by NWS Hastings, NE

Home | Current Version | Previous Version | Text Only | Print | Product List | Glossary On
Versions: 1 2 3 4 5 6 7 8 9 10 11 12 13 14 15 16 17 18 19 20 21 22 23 24 25 26 27 28 29 30 31 32 33 34 35 36 37 38 39 40 41 42 43 44 45 46 47 48 49 50
000
AXUS43 KGID 300702
MISGRI

GID CWA HOURLY WEATHER ROUNDUP
NATIONAL WEATHER SERVICE HASTINGS NE
200 AM CDT MON MAY 30 2016

NOTE: "FAIR" INDICATES FEW OR NO CLOUDS BELOW 12,000 FEET WITH NO
SIGNIFICANT WEATHER AND/OR OBSTRUCTIONS TO VISIBILITY.

...SOUTH CENTRAL NEBRASKA...

CITY           SKY/WX    TMP DP  RH WIND       PRES   REMARKS
GRAND ISLAND   CLOUDY    67  51  56 SW15      30.01F
HASTINGS       CLOUDY    65  50  58 S7        30.02F
KEARNEY        CLOUDY    63  52  67 S12       30.05F
ORD            CLOUDY    66  53  63 S17       29.97F
YORK           CLOUDY    68  50  52 SW9       29.99F
AURORA         CLOUDY    66  51  57 SW8       30.01F
LEXINGTON      CLOUDY    64  51  64 SW10      30.04F
HOLDREGE       CLOUDY    63  49  61 S5        30.06S
HEBRON         CLOUDY    66  51  59 SW12      30.00F

...NEBRASKA PANHANDLE...

CITY           SKY/WX    TMP DP  RH WIND       PRES   REMARKS
CHADRON        CLOUDY    51  47  86 S7        29.97S
ALLIANCE       CLOUDY    57  52  83 SW12      30.03S
SCOTTSBLUFF    CLOUDY    58  44  60 SE7       30.03S
SIDNEY         CLOUDY    58  50  75 S18G24    30.08S

...WESTERN AND NORTH CENTRAL NEBRASKA...

CITY           SKY/WX    TMP DP  RH WIND       PRES   REMARKS
VALENTINE      CLOUDY    62  50  64 SE6       29.98F
AINSWORTH      CLOUDY    64  51  62 SW15      29.99F
ONEILL         CLOUDY    68  59  71 E3        30.02R
BROKEN BOW     CLOUDY    59  56  89 S5        30.02F
IMPERIAL       CLOUDY    59  53  80 S13       30.08F
NORTH PLATTE   CLOUDY    61  52  72 VRB5      30.03F
MCCOOK         CLOUDY    62  51  67 S6        30.07S

...EASTERN NEBRASKA...

CITY           SKY/WX    TMP DP  RH WIND       PRES   REMARKS
NORFOLK        CLOUDY    65  58  78 SW3       30.01F
SO SIOUX CITY  CLOUDY    66  56  70 E3        29.99F
TEKAMAH          N/A    N/A N/A N/A MISG      29.99F
COLUMBUS       MOCLDY    64  52  63 CALM      30.02S
ALBION         CLOUDY    68  56  66 S7        30.02S
OMAHA EPPLEY   CLOUDY    71  60  68 S5        29.99F
OFFUTT AFB     CLOUDY    71  60  68 S5        29.99S
MILLARD        CLOUDY    69  60  71 NE3       29.99F
LINCOLN        CLOUDY    67  59  75 CALM      30.00F
NEBRASKA CITY  MOCLDY    66  62  86 S6        30.01F
BEATRICE       CLOUDY    69  58  70 SE3       30.01S
FALLS CITY     CLOUDY    67  64  90 SW5       30.01F

...NORTHERN KANSAS...

CITY           SKY/WX    TMP DP  RH WIND       PRES   REMARKS
GOODLAND       CLOUDY    58  50  75 NE5       30.11R
HILL CITY      CLOUDY    60  53  77 NW9       30.04R
NORTON         SUNNY     59  46  63 W6        30.06S
PHILLIPSBURG   CLEAR     61  54  77 CALM      30.03F
SMITH CENTER   PTCLDY    61  54  77 SE6       30.04S
BELOIT         PTCLDY    64  61  88 E6        30.01F
HAYS           PTCLDY    61  52  72 SE5       30.02F
RUSSELL        NOT AVBL
CONCORDIA      CLEAR     63  59  87 S8        30.01F
SALINA         CLOUDY    66  61  84 CALM      30.02F
TOPEKA         CLOUDY    65  64  97 CALM      30.03F



USA.gov is the U.S. government's official web portal to all federal, state and local government web resources and services.